Tracking 29088 objects as of 13-Jul-2024
HD Live streaming from Space Station
objects crossing your sky now

APSTAR 1

Track APSTAR 1 now!
APSTAR 1 is classified as:


NORAD ID: 23185
Int'l Code: 1994-043A
Perigee: 36,024.5 km
Apogee: 36,070.0 km
Inclination: 12.6 °
Period: 1,449.1 minutes
Semi major axis: 42418 km
RCS: 25.1188 m2 (large)
Launch date: July 21, 1994
Source: People's Republic of China (PRC)
Launch site: Xichang Space Center, China (XSC)

24 C-band transponders.
Your satellite tracking list
Your tracking list is empty




NASA's NSSDC Master Catalog

Two Line Element Set (TLE):
1 23185U 94043A   24194.64071969  .00000092  00000-0  00000-0 0  9992
2 23185  12.5932  22.7598 0005357  64.9077 125.8329  0.99374273 38071
Source of the keplerian elements: AFSPC